Simultaneous Nadir Overpasses (SNOs) Predictions

Prediction of SNOs over PacNW region [( 10.00, 139.50) to ( 22.70, 165.60)] between NOAA-19 and NPP Satellites:

Table of predicted SNOs over PacNW region for the next 30.0 days since TLE Epoch: 11/29/2013
Index Date (NOAA-19) Time (NOAA-19) NOAA-19 Lat,Lon Date (NPP) Time (NPP) NPP Lat,Lon Distance(km) Time Diff (sec)
1 12/06/2013 15:28:54 22.63, 157.42 12/06/2013 15:31:45 23.74, 152.63 505.33 171
2 12/07/2013 02:45:17 22.66, 160.86 12/07/2013 02:44:31 21.88, 157.04 402.90 46
3 12/19/2013 03:53:19 10.07, 146.10 12/19/2013 03:56:55 7.62, 141.35 589.38 216
4 12/19/2013 14:50:09 13.17, 165.58 12/19/2013 14:50:26 14.12, 161.36 468.53 17
5 12/19/2013 16:29:44 21.86, 142.19 12/19/2013 16:29:30 22.68, 138.06 434.56 14
6 12/20/2013 03:45:53 22.69, 145.82 12/20/2013 03:42:16 22.94, 142.47 344.60 217
